"2010-01-14 00:00:00",1590040,3.938,160,6.67,1.333,11.62,103.4214,8.03,9.17,20.45,0,110.1,13.38,8.81,122.0
"2010-01-14 00:00:30",1590041,4.168,160.7,6.526,1.243,12.43,103.4211,8.03,9.3,21.02,0,110.1,13.38,8.81,122.7
"2010-01-14 00:01:00",1590042,4.151,163.4,6.51,1.305,11.75,103.4189,8.03,9.12,20.97,0,110.1,13.38,8.81,125.4
"2010-01-14 00:01:30",1590043,2.997,160.2,3.777,0.902,8.68,103.4112,8.01,9.13,20.75,0,110.1,13.38,8.79,122.2
"2010-01-14 00:02:00",1590044,3.849,164.8,6.835,1.293,10.2,103.4014,7.983,9.09,20.52,0,110.1,13.38,8.76,126.8
"2010-01-14 00:02:30",1590045,2.618,158.3,0.593,0.032,8.11,103.394,7.965,9.03,20.71,0,110.1,13.41,8.74,120.3
"2010-01-14 00:03:00",1590046,2.76,160.8,1.288,0.537,8.54,103.3887,7.951,9.03,21.03,0,110.1,13.38,8.73,122.8
"2010-01-14 00:03:30",1590047,3.649,167,6.555,1.253,10.99,103.3887,7.951,9.13,21.12,0,110.1,13.38,8.73,129.0
"2010-01-14 00:04:00",1590048,3.492,165.8,6.719,1.249,11.09,103.3875,7.948,9.11,21.14,0,110.1,13.38,8.73,127.8
"2010-01-14 00:04:30",1590049,3.705,167.2,6.35,1.314,11.98,103.3875,7.948,9.24,21.11,0,110.1,13.39,8.73,129.2
"2010-01-14 00:05:00",1590050,3.318,165.1,6.801,1.255,10.95,103.3875,7.948,9.12,20.62,0,110.1,13.39,8.73,127.1
"2010-01-14 00:05:30",1590051,3.617,167.5,6.594,1.284,10.72,103.3875,7.948,9.06,20.18,0,110.1,13.39,8.73,129.5
"2010-01-14 00:06:00",1590052,3.416,167.3,6.983,1.29,10.42,103.3875,7.948,9.16,20.12,0,110.1,13.39,8.73,129.3
"2010-01-14 00:06:30",1590053,2.585,163.5,0.702,0.024,8.34,103.3875,7.948,9,20,0,110.1,13.42,8.73,125.5
"2010-01-14 00:07:00",1590054,3.528,166.8,5.806,1.269,10.55,103.3878,7.949,9.1,20,0,110.1,13.39,8.73,128.8
"2010-01-14 00:07:30",1590055,3.538,165.5,6.531,1.287,10.83,103.3905,7.955,9.16,19.87,0,110.1,13.4,8.74,127.5
"2010-01-14 00:08:00",1590056,2.742,160.3,3.434,0.776,9.26,103.3896,7.953,8.99,19.64,0,110.1,13.4,8.73,122.3
"2010-01-14 00:08:30",1590057,3.834,167.7,6.878,1.279,11.57,103.3922,7.96,9.22,19.89,0,110.1,13.4,8.74,129.7
"2010-01-14 00:09:00",1590058,3.27,167.3,5.687,1.119,10.71,103.3951,7.967,9.14,19.92,0,110.1,13.4,8.75,129.3
"2010-01-14 00:09:30",1590059,3.626,169.5,6.972,1.297,10.3,103.3966,7.971,9.06,20.19,0,110.1,13.4,8.75,131.5
"2010-01-14 00:10:00",1590060,2.725,165.8,2.446,0.022,8.89,103.3998,7.979,9.08,20.73,0,110.1,13.4,8.76,127.8
"2010-01-14 00:10:30",1590061,4.078,171.8,7.052,1.306,10.8,103.4033,7.988,9.13,21.01,0,110,13.4,8.77,133.8
"2010-01-14 00:11:00",1590062,3.589,168.9,6.329,1.224,9.72,103.4065,7.997,9.03,20.66,0,110.1,13.4,8.78,130.9
"2010-01-14 00:11:30",1590063,3.82,169.5,6.502,1.281,10.48,103.4103,8.01,9.09,20.44,0,110.1,13.4,8.79,131.5
"2010-01-14 00:12:00",1590064,3.182,166.1,4.171,0.992,8.85,103.4126,8.01,8.99,20.32,0,110.1,13.4,8.79,128.1
"2010-01-14 00:12:30",1590065,4.098,171.2,6.955,1.32,11.54,103.4164,8.02,9.25,20.96,0,110.1,13.4,8.80,133.2
"2010-01-14 00:13:00",1590066,3.69,168,6.204,1.226,10.78,103.4211,8.03,9.04,20.98,0,110.1,13.4,8.81,130.0
"2010-01-14 00:13:30",1590067,2.963,164.5,2.697,0.489,9.43,103.4226,8.04,9.1,21.12,0,110,13.4,8.82,126.5
"2010-01-14 00:14:00",1590068,3.809,167.5,6.26,1.276,10.26,103.4223,8.04,9.01,20.84,0,110.1,13.4,8.82,129.5
"2010-01-14 00:14:30",1590069,3.814,166,7.103,1.285,10.61,103.4223,8.04,9.23,20.98,0,110.1,13.4,8.82,128.0
"2010-01-14 00:15:00",1590070,3.988,166.4,7.788,1.301,10.65,103.4226,8.04,9.1,20.88,0,110.1,13.4,8.82,128.4
"2010-01-14 00:15:30",1590071,2.962,163.1,4.236,0.689,8.9,103.4226,8.04,9.03,20.68,0,110,13.4,8.82,125.1
"2010-01-14 00:16:00",1590072,3.372,164.1,5.063,0.973,9.45,103.4226,8.04,9.12,20.84,0,110,13.4,8.82,126.1
"2010-01-14 00:16:30",1590073,4.821,170.6,6.685,1.092,12.02,103.4226,8.04,9.13,20.92,0,110,13.4,8.82,132.6
"2010-01-14 00:17:00",1590074,3.12,162.7,3.699,0.541,9.58,103.4226,8.04,9.13,20.88,0,110,13.4,8.82,124.7
"2010-01-14 00:17:30",1590075,4.04,166,6.665,1.279,10.53,103.4226,8.04,9.05,20.66,0,110.1,13.4,8.82,128.0
"2010-01-14 00:18:00",1590076,3.596,163.4,5.005,1.105,9.89,103.4226,8.04,9.11,20.66,0,110.1,13.4,8.82,125.4
"2010-01-14 00:18:30",1590077,4.528,167.7,6.773,1.314,11.58,103.4226,8.04,9.22,20.66,0,110.1,13.4,8.82,129.7
"2010-01-14 00:19:00",1590078,3.537,162.4,5.165,0.913,9.93,103.4226,8.04,9.15,20.55,0,110.1,13.4,8.82,124.4
"2010-01-14 00:19:30",1590079,3.171,160.1,0.765,0.033,8.67,103.4226,8.04,9.11,20.49,0,110.1,13.43,8.82,122.1
"2010-01-14 00:20:00",1590080,4.221,165.6,6.213,1.278,10.81,103.4226,8.04,9.09,20.38,0,110.1,13.4,8.82,127.6
"2010-01-14 00:20:30",1590081,3.909,164.8,6.311,1.149,10.84,103.4226,8.04,9.3,20.57,0,110,13.4,8.82,126.8
"2010-01-14 00:21:00",1590082,3.722,163.4,4.487,1.016,9.6,103.4226,8.04,9.09,20.31,0,110,13.4,8.82,125.4
"2010-01-14 00:21:30",1590083,4.049,166.5,6.697,1.232,11.04,103.4226,8.04,9.16,20.31,0,110.1,13.41,8.82,128.5
"2010-01-14 00:22:00",1590084,4.508,166.9,6.745,1.257,11.82,103.4226,8.04,9.25,20.44,0,110,13.41,8.82,128.9
"2010-01-14 00:22:30",1590085,4.444,166.3,6.71,1.294,11.42,103.4226,8.04,9.2,20.54,0,110,13.41,8.82,128.3
"2010-01-14 00:23:00",1590086,2.75,160.5,0.526,0.035,8.34,103.4226,8.04,9.04,20.52,0,110,13.44,8.82,122.5
"2010-01-14 00:23:30",1590087,3.395,163.7,5.602,1.133,9.78,103.4226,8.04,9.2,20.69,0,110,13.41,8.82,125.7
"2010-01-14 00:24:00",1590088,3.314,159.9,4.87,0.862,9.12,103.4234,8.04,9.1,20.55,0,110.1,13.41,8.82,121.9
"2010-01-14 00:24:30",1590089,3.149,159.1,1.636,0.533,8.72,103.4243,8.04,9.04,20.53,0,110,13.41,8.82,121.1
"2010-01-14 00:25:00",1590090,4.179,166.1,6.735,1.305,11.23,103.4251,8.04,9.24,20.79,0,110,13.41,8.82,128.1
"2010-01-14 00:25:30",1590091,3.306,159.1,2.581,0.67,9.33,103.424,8.04,9.08,20.72,0,110,13.41,8.82,121.1
"2010-01-14 00:26:00",1590092,4.475,164.4,6.477,1.322,11.95,103.4231,8.04,9.32,21.03,0,110,13.41,8.82,126.4
"2010-01-14 00:26:30",1590093,4.403,163.5,7.084,1.278,11.23,103.4229,8.04,9.28,20.98,0,110,13.41,8.82,125.5
"2010-01-14 00:27:00",1590094,4.149,162.8,6.428,1.215,10.65,103.4234,8.04,9.19,21,0,110,13.41,8.82,124.8
"2010-01-14 00:27:30",1590095,3.566,160.6,5.826,0.997,9.91,103.4229,8.04,9.21,20.94,0,110,13.41,8.82,122.6
"2010-01-14 00:28:00",1590096,3.491,160.1,4.986,1.044,9.17,103.4229,8.04,9.08,20.7,0,110,13.41,8.82,122.1
"2010-01-14 00:28:30",1590097,3.803,160.9,6.287,1.21,9.85,103.4226,8.04,9.08,20.67,0,110,13.41,8.82,122.9
"2010-01-14 00:29:00",1590098,3.776,161.4,6.297,1.227,10.87,103.4229,8.04,9.27,20.89,0,110,13.41,8.82,123.4
"2010-01-14 00:29:30",1590099,3.883,160.6,6.426,1.259,10.83,103.4226,8.04,9.2,20.65,0,110,13.41,8.82,122.6
"2010-01-14 00:30:00",1590100,4.656,165,6.675,1.226,12.3,103.4234,8.04,9.34,20.95,0,110,13.41,8.82,127.0
"2010-01-14 00:30:30",1590101,4.004,161.1,6.4,1.247,10.35,103.4237,8.04,9.07,20.94,0,110,13.41,8.82,123.1
"2010-01-14 00:31:00",1590102,3.313,158.3,4.391,0.774,9.22,103.4255,8.05,9.23,21.04,0,110,13.41,8.83,120.3
"2010-01-14 00:31:30",1590103,3.942,161.1,5.812,1.214,9.6,103.4258,8.05,9.11,20.7,0,110,13.41,8.83,123.1
"2010-01-14 00:32:00",1590104,2.987,158.3,0.721,0.05,8.43,103.4278,8.05,9.1,20.52,0,110,13.44,8.83,120.3
"2010-01-14 00:32:30",1590105,3.61,161.1,5.728,1.054,10.1,103.4287,8.05,9.26,20.61,0,110,13.41,8.83,123.1
"2010-01-14 00:33:00",1590106,4.712,167.3,6.725,1.279,11.78,103.4307,8.06,9.23,20.52,0,110,13.41,8.84,129.3
"2010-01-14 00:33:30",1590107,4.693,167.1,6.196,1.254,12.44,103.431,8.06,9.29,20.45,0,110,13.41,8.84,129.1
"2010-01-14 00:34:00",1590108,4.394,163.9,6.91,1.302,11.03,103.436,8.07,9.19,20.27,0,110,13.41,8.85,125.9
"2010-01-14 00:34:30",1590109,4.088,161.9,6.428,1.243,10.78,103.4354,8.07,9.32,20.36,0,110,13.41,8.85,123.9
"2010-01-14 00:35:00",1590110,3.955,159.7,5.775,1.165,9.67,103.4369,8.07,9.14,20.42,0,110,13.41,8.85,121.7
"2010-01-14 00:35:30",1590111,3.726,158.6,4.996,1.061,9.85,103.4395,8.08,9.18,20.5,0,110,13.41,8.86,120.6
"2010-01-14 00:36:00",1590112,3.085,154.7,0.758,0.046,8.39,103.4383,8.08,9.1,20.54,0,110,13.44,8.86,116.7
"2010-01-14 00:36:30",1590113,3.741,155.1,5.562,1.128,9.78,103.4439,8.09,9.19,20.96,0,110,13.41,8.87,117.1
"2010-01-14 00:37:00",1590114,4.793,161.7,6.885,1.256,12.6,103.4448,8.09,9.34,21.36,0,110,13.41,8.87,123.7
"2010-01-14 00:37:30",1590115,3.383,156.4,4.781,1.001,10.05,103.4465,8.1,9.2,21.28,0,110,13.41,8.88,118.4
"2010-01-14 00:38:00",1590116,3.882,159.6,6.491,1.348,10.38,103.4459,8.1,9.18,21.27,0,110,13.41,8.88,121.6
"2010-01-14 00:38:30",1590117,4.374,164.8,6.483,1.245,12,103.448,8.1,9.34,21.43,0,110,13.41,8.88,126.8
"2010-01-14 00:39:00",1590118,3.319,162.4,5.091,1.166,9.27,103.4486,8.1,9.1,21.25,0,110,13.42,8.88,124.4
"2010-01-14 00:39:30",1590119,2.588,161.8,0.984,0.055,8.15,103.4524,8.11,9.1,21.27,0,110,13.45,8.89,123.8
"2010-01-14 00:40:00",1590120,2.521,163.7,0.859,0.085,8.24,103.4509,8.11,9.1,21.27,0,110,13.45,8.89,125.7
"2010-01-14 00:40:30",1590121,3.825,168.9,6.399,1.294,11.32,103.4509,8.11,9.27,21.46,0,110,13.42,8.89,130.9
"2010-01-14 00:41:00",1590122,4.234,169.7,6.512,1.265,12.24,103.4535,8.12,9.29,21.55,0,110,13.42,8.90,131.7
"2010-01-14 00:41:30",1590123,2.784,155.5,1.206,0.104,8.83,103.4547,8.12,9.14,21.42,0,110,13.45,8.90,117.5
"2010-01-14 00:42:00",1590124,4.229,162.4,7.21,1.331,11.12,103.4521,8.11,9.22,21.17,0,110,13.42,8.89,124.4
"2010-01-14 00:42:30",1590125,4.632,164.9,6.396,1.253,12.01,103.4541,8.12,9.35,21.13,0,110,13.42,8.90,126.9
"2010-01-14 00:43:00",1590126,3.192,158.7,3.117,0.799,8.78,103.4576,8.13,9.12,20.73,0,110,13.42,8.91,120.7
"2010-01-14 00:43:30",1590127,2.86,160.2,0.598,0.026,8.19,103.4576,8.13,9.1,20.41,0,110,13.45,8.91,122.2
"2010-01-14 00:44:00",1590128,3.075,162.1,3.634,0.806,8.64,103.4576,8.13,9.09,20.34,0,110,13.42,8.91,124.1
"2010-01-14 00:44:30",1590129,4.132,167.9,6.841,1.316,11.49,103.4576,8.13,9.3,20.47,0,110,13.42,8.91,129.9
"2010-01-14 00:45:00",1590130,3.885,166,6.985,1.298,11.26,103.4573,8.13,9.31,20.48,0,110,13.43,8.91,128.0
"2010-01-14 00:45:30",1590131,2.853,159.1,2.719,0.014,9.18,103.4576,8.13,9.15,20.46,0,110,13.46,8.91,121.1
"2010-01-14 00:46:00",1590132,4.062,163.1,6.22,1.265,10.91,103.4576,8.13,9.26,20.58,0,110.1,13.42,8.91,125.1
"2010-01-14 00:46:30",1590133,4.143,163.4,6.585,1.28,11.43,103.4576,8.13,9.34,20.58,0,110,13.42,8.91,125.4
"2010-01-14 00:47:00",1590134,3.371,157,5.717,1.061,9.38,103.4576,8.13,9.11,20.4,0,110,13.42,8.91,119.0
"2010-01-14 00:47:30",1590135,2.808,152,1.619,0.04,8.27,103.4576,8.13,9.07,20.57,0,110,13.46,8.91,114.0
"2010-01-14 00:48:00",1590136,3.472,152.3,5.782,1.143,9.96,103.4576,8.13,9.22,20.93,0,110,13.42,8.91,114.3
"2010-01-14 00:48:30",1590137,4.223,155.6,6.703,1.214,11.93,103.4573,8.13,9.31,21.23,0,110,13.42,8.91,117.6
"2010-01-14 00:49:00",1590138,3.154,152.6,6.174,1.232,9.94,103.4576,8.13,9.09,21.18,0,110,13.42,8.91,114.6
"2010-01-14 00:49:30",1590139,2.213,151.5,1.307,0.059,8.73,103.4571,8.13,9.13,21.41,0,110,13.45,8.91,113.5
"2010-01-14 00:50:00",1590140,3.179,157.7,7.03,1.289,10.8,103.4531,8.12,9.24,21.65,0,110,13.42,8.90,119.7
"2010-01-14 00:50:30",1590141,3.926,157.6,6.123,1.166,12.1,103.4477,8.1,9.28,21.81,0,110,13.42,8.88,119.6
"2010-01-14 00:51:00",1590142,2.286,142.1,4.31,0.772,8.2,103.4446,8.09,9.07,21.69,0,110,13.42,8.87,104.1
"2010-01-14 00:51:30",1590143,2.052,138.3,0.678,0.042,8.1,103.4412,8.09,9.11,21.78,0,110,13.45,8.87,100.3
"2010-01-14 00:52:00",1590144,3.384,145.3,6.048,1.258,9.97,103.4308,8.06,9.13,21.84,0,110.1,13.42,8.84,107.3
"2010-01-14 00:52:30",1590145,4.229,150.5,6.352,1.194,12.03,103.4249,8.04,9.28,21.98,0,110,13.42,8.82,112.5
"2010-01-14 00:53:00",1590146,2.642,143.3,2.749,0.649,9.21,103.4237,8.04,9.17,21.81,0,110,13.42,8.82,105.3
"2010-01-14 00:53:30",1590147,3.632,148.9,6.816,1.262,10.72,103.4237,8.04,9.14,21.76,0,110,13.43,8.82,110.9
"2010-01-14 00:54:00",1590148,3.876,150,6.679,1.275,11.18,103.4237,8.04,9.2,21.76,0,110,13.43,8.82,112.0
"2010-01-14 00:54:30",1590149,4.133,151.6,6.517,1.26,11.58,103.4237,8.04,9.22,21.78,0,110,13.43,8.82,113.6
"2010-01-14 00:55:00",1590150,2.516,144,0.328,0.019,8.52,103.4232,8.04,9.08,21.52,0,110,13.46,8.82,106.0
"2010-01-14 00:55:30",1590151,3.597,149.4,6.696,1.318,9.99,103.4181,8.03,9.07,21.46,0,110,13.43,8.81,111.4
"2010-01-14 00:56:00",1590152,2.978,146.5,5.107,0.961,9.48,103.4104,8.01,9.17,21.55,0,110,13.43,8.79,108.5
"2010-01-14 00:56:30",1590153,4.194,149.8,6.314,1.283,11.47,103.3924,7.96,9.06,21.5,0,110,13.43,8.74,111.8
"2010-01-14 00:57:00",1590154,2.859,142.3,2.723,0.624,9.08,103.3898,7.954,9.12,21.64,0,110,13.43,8.73,104.3
"2010-01-14 00:57:30",1590155,4.682,155.3,5.288,1.186,12.37,103.3898,7.954,9.18,21.81,0,110,13.43,8.73,117.3
"2010-01-14 00:58:00",1590156,3.906,151.2,6.331,1.308,10.52,103.3898,7.954,9.07,21.95,0,110,13.43,8.73,113.2
"2010-01-14 00:58:30",1590157,4.384,152.4,6.611,1.241,11.03,103.3898,7.954,9.1,22.21,0,110,13.43,8.73,114.4
"2010-01-14 00:59:00",1590158,2.918,146.6,0.896,0.065,8.55,103.3898,7.954,9.03,22.59,0,110,13.46,8.73,108.6
"2010-01-14 00:59:30",1590159,3.742,152.5,7.007,1.244,10.04,103.3898,7.954,9.14,22.99,0,110,13.43,8.73,114.5
"2010-01-14 01:00:00",1590160,3.196,149.2,5.41,1.035,9.43,103.3898,7.954,9.11,23,0,110,13.43,8.73,111.2
"2010-01-14 01:00:30",1590161,3.501,149.6,5.82,1.222,9.71,103.3898,7.954,8.97,22.71,0,110,13.43,8.73,111.6
"2010-01-14 01:01:00",1590162,3.377,150.6,6.308,1.188,10.48,103.3884,7.95,9.15,22.69,0,110,13.43,8.73,112.6
"2010-01-14 01:01:30",1590163,3.926,152.9,6.526,1.27,10.84,103.3802,7.929,9.04,22.58,0,110,13.43,8.71,114.9
"2010-01-14 01:02:00",1590164,3.777,151.7,5.547,1.249,10.6,103.3667,7.895,9.15,22.95,0,110,13.43,8.67,113.7
"2010-01-14 01:02:30",1590165,4.022,152.9,6.433,1.273,10.76,103.3588,7.874,9.1,23.12,0,110,13.43,8.65,114.9
"2010-01-14 01:03:00",1590166,3.999,149.4,6.603,1.332,10.22,103.3559,7.867,9.05,23.29,0,110,13.43,8.65,111.4
"2010-01-14 01:03:30",1590167,3.893,148.6,6.837,1.232,10.07,103.3559,7.867,9.09,23.39,0,110,13.43,8.65,110.6
"2010-01-14 01:04:00",1590168,3.464,143.8,4.495,0.898,8.67,103.3559,7.867,8.93,23.23,0,110,13.43,8.65,105.8
"2010-01-14 01:04:30",1590169,3.466,142,4.061,0.894,9.07,103.3562,7.868,9.01,23.37,0,110,13.43,8.65,104.0
"2010-01-14 01:05:00",1590170,4.572,148.2,6.408,1.261,12.01,103.3565,7.869,9.19,23.53,0,110,13.43,8.65,110.2
"2010-01-14 01:05:30",1590171,4.896,147.3,6.245,1.268,12.14,103.3568,7.869,9.12,23.49,0,110,13.43,8.65,109.3
"2010-01-14 01:06:00",1590172,3.655,139.7,3.602,0.884,8.9,103.3559,7.867,9,23.39,0,110,13.43,8.65,101.7
"2010-01-14 01:06:30",1590173,5.32,147.9,5.868,1.165,11.82,103.3562,7.868,9.06,23.43,0,110,13.43,8.65,109.9
"2010-01-14 01:07:00",1590174,4.22,142.4,6.537,1.231,10.1,103.3551,7.865,9.04,23.45,0,110,13.43,8.64,104.4
"2010-01-14 01:07:30",1590175,3.438,138,2.414,0.669,8.35,103.3548,7.864,8.9,23.32,0,110,13.43,8.64,100.0
"2010-01-14 01:08:00",1590176,4.016,142.3,5.914,1.264,9.97,103.35,7.852,8.91,23.44,0,110,13.43,8.63,104.3
"2010-01-14 01:08:30",1590177,4.483,147.7,6.945,1.223,11.55,103.3427,7.834,9.06,23.76,0,110,13.43,8.61,109.7
"2010-01-14 01:09:00",1590178,4.82,151.4,5.659,1.162,12.52,103.3351,7.814,9.14,23.82,0,110,13.43,8.59,113.4
"2010-01-14 01:09:30",1590179,3.732,143.8,6.382,1.175,9.51,103.327,7.793,8.89,23.5,0,110,13.43,8.57,105.8
"2010-01-14 01:10:00",1590180,4.009,147.8,6.919,1.254,10.77,103.3282,7.796,9.17,23.73,0,110,13.43,8.58,109.8
"2010-01-14 01:10:30",1590181,3.564,148.1,4.599,1.114,8.79,103.3267,7.793,8.92,23.23,0,110,13.43,8.57,110.1
"2010-01-14 01:11:00",1590182,3.617,150.8,6.628,1.129,9.53,103.327,7.793,8.95,23.06,0,110,13.44,8.57,112.8
"2010-01-14 01:11:30",1590183,3.316,148.2,3.26,0.93,8.2,103.3276,7.795,8.85,22.81,0,110,13.44,8.57,110.2
"2010-01-14 01:12:00",1590184,4.203,152.2,5.664,1.292,10.82,103.3279,7.796,9.03,22.87,0,110,13.44,8.57,114.2
"2010-01-14 01:12:30",1590185,4.194,149.4,6.8,1.185,11.11,103.329,7.799,9.09,23.18,0,110,13.44,8.58,111.4
"2010-01-14 01:13:00",1590186,4.052,149.6,6.88,1.301,11.12,103.3296,7.8,9.06,23.51,0,110,13.44,8.58,111.6
"2010-01-14 01:13:30",1590187,3.895,145.7,5.849,1.205,9.32,103.3274,7.794,8.94,23.45,0,110,13.44,8.57,107.7
"2010-01-14 01:14:00",1590188,3.235,143.4,4.974,0.776,8.76,103.3215,7.779,8.96,23.37,0,110,13.44,8.56,105.4
"2010-01-14 01:14:30",1590189,3.734,145.8,6.272,1.195,9.16,103.3079,7.744,8.8,23.19,0,110,13.44,8.52,107.8
"2010-01-14 01:15:00",1590190,2.969,140.6,0.69,0.043,8.18,103.2983,7.72,8.78,23.16,0,110,13.48,8.50,102.6
"2010-01-14 01:15:30",1590191,4.034,144.8,6.527,1.267,10.35,103.2983,7.72,8.93,23.08,0,110,13.44,8.50,106.8
"2010-01-14 01:16:00",1590192,4.827,150.3,6.321,1.193,12.14,103.2986,7.721,8.96,23.12,0,110,13.44,8.50,112.3
"2010-01-14 01:16:30",1590193,4.789,149.8,5.781,1.227,12.11,103.2998,7.724,9,23.24,0,110,13.44,8.50,111.8
"2010-01-14 01:17:00",1590194,4.15,142.3,5.676,1.281,9.47,103.3001,7.725,8.9,23.23,0,110,13.44,8.50,104.3
"2010-01-14 01:17:30",1590195,4.545,145.1,6.092,1.256,10.93,103.3007,7.726,8.94,23.39,0,110,13.44,8.51,107.1
"2010-01-14 01:18:00",1590196,2.896,132.2,1.152,0.238,7.731,103.3011,7.727,8.75,23.79,0,110,13.44,8.51,94.2
"2010-01-14 01:18:30",1590197,2.851,131.5,0.4,0,7.742,103.2952,7.712,8.74,24.24,0,110,13.48,8.49,93.5
"2010-01-14 01:19:00",1590198,4.272,139.6,7.279,1.332,10.64,103.287,7.691,8.81,24.48,0,110,13.44,8.47,101.6
"2010-01-14 01:19:30",1590199,4.601,140,7.151,1.241,11.41,103.2746,7.659,8.98,24.69,0,110,13.44,8.44,102.0
"2010-01-14 01:20:00",1590200,5.374,140.8,6.116,1.101,11.87,103.2749,7.66,8.94,24.59,0,110,13.44,8.44,102.8
"2010-01-14 01:20:30",1590201,4.727,139,6.996,1.303,10.53,103.2747,7.66,8.86,24.44,0,110,13.44,8.44,101.0
"2010-01-14 01:21:00",1590202,4.21,137.9,6.17,1.119,9.5,103.2767,7.665,8.88,24.46,0,110,13.44,8.44,99.9
"2010-01-14 01:21:30",1590203,4.424,137.7,6.378,1.25,9.4,103.2767,7.665,8.72,24.31,0,110,13.44,8.44,99.7
"2010-01-14 01:22:00",1590204,3.935,134.2,4.949,0.955,8.77,103.2779,7.668,8.67,24.29,0,110,13.44,8.45,96.2
"2010-01-14 01:22:30",1590205,4.274,134.4,6.064,1.197,9.78,103.2661,7.638,8.79,24.6,0,110,13.44,8.42,96.4
"2010-01-14 01:23:00",1590206,4.924,136.9,6.649,1.281,11.56,103.2508,7.599,8.87,25.42,0,110,13.44,8.38,98.9
"2010-01-14 01:23:30",1590207,4.695,137.2,6.514,1.295,10.82,103.2475,7.59,8.87,25.66,0,110,13.44,8.37,99.2
"2010-01-14 01:24:00",1590208,5.088,139.1,6.683,1.272,11.64,103.2478,7.591,8.92,25.73,0,110,13.44,8.37,101.1
"2010-01-14 01:24:30",1590209,3.774,133.1,5.03,0.989,8.95,103.2475,7.59,8.77,25.79,0,110,13.43,8.37,95.1
"2010-01-14 01:25:00",1590210,3.411,133.2,1.64,0.016,7.904,103.2466,7.588,8.63,25.42,0,110,13.47,8.37,95.2
"2010-01-14 01:25:30",1590211,3.519,137.7,3.378,0.475,8.45,103.248,7.591,8.72,25.03,0,110,13.47,8.37,99.7
"2010-01-14 01:26:00",1590212,4.382,141.4,6.318,1.286,9.91,103.248,7.591,8.68,24.65,0,110,13.44,8.37,103.4
"2010-01-14 01:26:30",1590213,4.848,144.7,6.328,1.249,11.76,103.2495,7.595,8.8,24.81,0,110,13.44,8.37,106.7
"2010-01-14 01:27:00",1590214,5.056,146,5.594,1.244,12.01,103.2501,7.597,8.85,24.92,0,110,13.44,8.38,108.0
"2010-01-14 01:27:30",1590215,4.683,144.3,6.611,1.311,11.05,103.2501,7.597,8.76,24.89,0,110,13.44,8.38,106.3
"2010-01-14 01:28:00",1590216,4.154,142.4,6.353,1.203,9.93,103.2439,7.581,8.72,24.82,0,110,13.44,8.36,104.4
"2010-01-14 01:28:30",1590217,3.238,137.8,0.635,0.043,7.834,103.2368,7.563,8.57,24.72,0,110,13.48,8.34,99.8
"2010-01-14 01:29:00",1590218,3.701,139.9,4.914,0.878,8.97,103.227,7.538,8.69,24.86,0,110,13.45,8.32,101.9
"2010-01-14 01:29:30",1590219,3.925,140.1,5.523,1.092,9.49,103.2253,7.533,8.63,24.83,0,110,13.45,8.31,102.1
"2010-01-14 01:30:00",1590220,4.271,142.3,6.21,1.301,10.21,103.2202,7.52,8.63,24.96,0,110,13.45,8.30,104.3
"2010-01-14 01:30:30",1590221,5.085,146.8,5.526,1.157,11.73,103.2206,7.521,8.78,25.37,0,110,13.45,8.30,108.8
"2010-01-14 01:31:00",1590222,5.563,146.3,5.803,1.138,11.99,103.2206,7.521,8.71,25.51,0,110,13.45,8.30,108.3
"2010-01-14 01:31:30",1590223,3.88,136.8,2.369,0.326,8.31,103.22,7.52,8.64,25.19,0,110,13.45,8.30,98.8
"2010-01-14 01:32:00",1590224,3.897,136.9,1.212,0.083,7.782,103.22,7.52,8.53,24.73,0,110,13.48,8.30,98.9
"2010-01-14 01:32:30",1590225,4.928,142.3,6.974,1.191,10,103.2197,7.519,8.64,24.54,0,110,13.45,8.30,104.3
"2010-01-14 01:33:00",1590226,5.459,141.1,5.931,1.339,11.07,103.2211,7.523,8.78,24.5,0,110,13.45,8.30,103.1
"2010-01-14 01:33:30",1590227,6.18,141.5,6.204,1.102,11.86,103.2214,7.523,8.73,23.75,0,110,13.45,8.30,103.5
"2010-01-14 01:34:00",1590228,6.132,141.8,4.779,1.055,12.4,103.2214,7.523,8.8,23.53,0,110,13.45,8.30,103.8
"2010-01-14 01:34:30",1590229,5.251,135.5,6.133,1.272,10.04,103.2211,7.523,8.56,23.11,0,110.1,13.45,8.30,97.5
"2010-01-14 01:35:00",1590230,4.682,135.4,6.148,1.174,9.35,103.2214,7.523,8.66,23.25,0,110,13.45,8.30,97.4
"2010-01-14 01:35:30",1590231,4.203,135.7,5.21,0.948,9.06,103.2214,7.523,8.63,23.54,0,110,13.45,8.30,97.7
"2010-01-14 01:36:00",1590232,4.636,135,5.981,1.055,8.93,103.22,7.52,8.55,23.64,0,110,13.45,8.30,97.0
"2010-01-14 01:36:30",1590233,4.831,136.2,6.613,1.186,9.66,103.2135,7.503,8.59,23.78,0,110,13.45,8.28,98.2
"2010-01-14 01:37:00",1590234,5.685,140.9,6.348,1.238,11.65,103.2087,7.491,8.72,24.14,0,110,13.45,8.27,102.9
"2010-01-14 01:37:30",1590235,5.845,142.1,5.387,0.967,12.34,103.2014,7.472,8.77,24.71,0,110,13.44,8.25,104.1
"2010-01-14 01:38:00",1590236,4.445,134,5.649,1.062,8.56,103.1901,7.443,8.54,24.77,0,110,13.44,8.22,96.0
"2010-01-14 01:38:30",1590237,5.098,136.8,5.868,1.241,10.02,103.1875,7.437,8.61,24.79,0,110,13.44,8.21,98.8
"2010-01-14 01:39:00",1590238,4.956,137.2,7.354,1.214,9.79,103.1875,7.437,8.59,24.48,0,110,13.44,8.21,99.2
"2010-01-14 01:39:30",1590239,4.963,136.2,5.339,1.304,9.28,103.1875,7.437,8.46,24.33,0,110,13.44,8.21,98.2
"2010-01-14 01:40:00",1590240,5.52,138.5,6.478,1.243,11.08,103.1875,7.437,8.64,24.8,0,110,13.44,8.21,100.5
"2010-01-14 01:40:30",1590241,6.011,145.3,5.799,1.155,12.3,103.1872,7.436,8.73,24.93,0,110,13.44,8.21,107.3
"2010-01-14 01:41:00",1590242,5.631,144.8,6.366,1.236,11.45,103.1844,7.429,8.64,24.93,0,110,13.44,8.21,106.8
"2010-01-14 01:41:30",1590243,5.258,144,6.399,1.227,10.35,103.1788,7.414,8.5,25.04,0,110,13.44,8.19,106.0
"2010-01-14 01:42:00",1590244,4.38,143.2,6.449,1.09,9.52,103.1697,7.391,8.54,24.5,0,110,13.45,8.17,105.2
"2010-01-14 01:42:30",1590245,4.256,141.4,4.165,0.935,8.56,103.1578,7.361,8.4,24.29,0,110,13.45,8.14,103.4
"2010-01-14 01:43:00",1590246,4.127,141.2,2.663,0.691,8.36,103.1544,7.352,8.43,24.33,0,110,13.45,8.13,103.2
"2010-01-14 01:43:30",1590247,5.344,149.3,6.782,1.299,11.29,103.1544,7.352,8.66,24.54,0,110,13.45,8.13,111.3
"2010-01-14 01:44:00",1590248,5.652,151.3,6.154,1.203,12.03,103.1536,7.35,8.64,24.94,0,110,13.45,8.13,113.3
"2010-01-14 01:44:30",1590249,5.492,148.2,6.554,1.256,11.24,103.1536,7.35,8.54,24.9,0,110,13.46,8.13,110.2
"2010-01-14 01:45:00",1590250,4.944,143.4,6.905,1.197,10.08,103.1536,7.35,8.48,24.85,0,110,13.46,8.13,105.4
"2010-01-14 01:45:30",1590251,5.218,140.3,6.055,1.317,10.02,103.1536,7.35,8.51,24.41,0,110,13.46,8.13,102.3
"2010-01-14 01:46:00",1590252,4.196,135.1,0.527,0.048,8.28,103.1539,7.351,8.42,23.57,0,110,13.49,8.13,97.1
"2010-01-14 01:46:30",1590253,5.269,142.3,6.794,1.309,11,103.1567,7.358,8.49,23.48,0,110,13.46,8.14,104.3
"2010-01-14 01:47:00",1590254,5.448,142.1,6.502,1.246,11.43,103.161,7.369,8.6,23.41,0,110,13.46,8.15,104.1
"2010-01-14 01:47:30",1590255,5.586,145.2,5.79,1.216,12.15,103.166,7.382,8.62,23.3,0,110,13.46,8.16,107.2
"2010-01-14 01:48:00",1590256,4.677,141.7,6.331,1.235,9.98,103.1751,7.405,8.53,23.25,0,110,13.46,8.18,103.7
"2010-01-14 01:48:30",1590257,4.639,142.6,6.395,1.266,9.87,103.1799,7.417,8.46,23.25,0,110,13.46,8.20,104.6
"2010-01-14 01:49:00",1590258,3.426,138.5,0.754,0.053,7.97,103.1838,7.427,8.42,23.81,0,110,13.49,8.21,100.5
"2010-01-14 01:49:30",1590259,3.951,142.9,5.671,1.041,9.4,103.1864,7.434,8.57,24.19,0,110,13.46,8.21,104.9
"2010-01-14 01:50:00",1590260,4.04,142.9,5.207,1.11,9.23,103.1864,7.434,8.42,23.99,0,110,13.46,8.21,104.9
"2010-01-14 01:50:30",1590261,5.284,148.9,5.588,1.15,11.93,103.187,7.435,8.55,23.99,0,110,13.46,8.21,110.9
"2010-01-14 01:51:00",1590262,5.41,147.8,5.766,1.182,12.12,103.187,7.435,8.61,23.59,0,110,13.46,8.21,109.8